SCP
0 0 0 0 0 0 0 0 0 0 0 1 1 1 1 1 1 1 1 1 1 1 1 1 1 1 1 1 1 2 2 1 1 2 4 4 4 4 5 4 4 3 2 2
0 0 0 0 0 0 0 0 0 0 1 1 1 1 1 1 1 1 1 1 1 1 1 1 1 1 1 1 1 1 1 1 1 1 2 2 3 4 4 3 3 2 2 2
0 0 0 0 0 0 0 0 0 0 1 1 1 1 1 1 0 0 0 1 1 1 1 1 1 1 1 1 1 1 0 0 0 0 1 1 1 2 2 1 1 1 1 1
0 0 0 0 0 0 0 0 0 0 0 0 0 0 1 0 0 0 0 0 0 1 1 1 0 0 0 0 0 0 0 0 0 0 0 0 0 1 1 0 0 0 0 0
0 0 0 0 0 0 0 0 0 0 0 0 0 0 0 0 0 0 0 0 0 0 0 0 0 0 0 0 0 0 0 0 0 0 0 0 0 0 0 0 0 0 0 0
0 0 0 0 0 0 0 0 0 0 0 0 0 0 0 0 0 0 0 0 0 0 0 0 0 0 0 0 0 0 0 0 0 0 0 0 0 0 0 0 0 0 0 0
0 0 0 0 0 0 0 0 0 0 0 0 0 0 0 0 0 0 0 0 0 0 0 0 0 0 0 0 0 0 0 0 0 0 0 0 0 0 0 0 0 0 0 0
0 0 0 0 0 0 0 0 0 0 0 0 0 0 0 0 0 0 0 0 0 0 0 0 0 0 0 0 0 0 0 0 0 0 0 0 0 0 0 0 0 0 0 0
0 0 0 0 0 0 0 0 0 0 0 0 0 0 0 0 0 0 0 0 0 0 0 0 0 0 0 0 0 0 0 0 0 0 0 0 0 0 0 0 0 0 0 -0
0 0 0 0 0 0 0 0 0 0 0 0 0 0 0 0 0 0 0 0 0 0 0 0 0 0 0 0 0 0 0 0 0 0 0 0 0 0 0 0 0 0 0 0
0 0 0 0 0 0 0 0 0 0 0 0 0 0 0 0 0 0 0 0 0 0 0 0 0 0 0 0 0 0 0 0 0 0 0 0 0 0 0 0 0 0 0 0
0 0 0 0 0 0 0 0 0 0 0 0 0 0 0 0 0 0 0 0 0 0 0 0 0 0 0 0 0 0 0 0 0 0 0 0 0 0 0 0 0 0 0 0
0 0 0 0 0 0 0 0 0 0 0 0 0 0 0 0 0 0 0 0 0 0 0 0 0 0 0 0 0 0 0 0 0 0 0 0 0 0 0 0 0 0 0 0
0 0 0 0 0 0 0 0 0 0 0 0 0 0 0 0 0 0 0 0 0 0 0 0 0 0 0 0 0 0 0 0 0 0 0 0 0 0 0 0 0 0 0 0
0 0 0 0 0 0 0 0 0 0 0 0 0 0 0 0 0 0 0 0 0 0 0 0 0 0 0 0 0 0 0 0 0 0 0 0 0 0 0 0 0 0 0 0
0 0 0 0 0 0 0 0 0 0 0 0 0 0 0 0 0 0 0 0 0 0 0 0 0 0 0 0 0 0 0 0 0 0 0 0 0 0 0 0 0 0 0 0
0 0 0 0 0 0 0 0 0 0 0 0 0 0 0 0 0 0 0 0 0 0 0 0 0 0 0 0 0 0 0 0 0 0 0 0 0 0 0 0 0 0 0 0
0 0 0 0 0 0 0 0 0 0 0 0 0 0 0 0 0 0 0 0 0 0 0 0 0 0 0 0 0 0 0 0 0 0 0 0 0 0 0 0 0 0 0 0
0 0 0 0 0 0 0 0 0 0 0 0 0 0 0 0 0 0 0 0 0 0 0 0 0 0 0 0 0 0 0 0 0 0 0 0 0 0 0 0 0 0 0 0
0 0 0 0 0 0 0 0 0 0 0 0 0 0 0 0 0 0 0 0 0 0 0 0 0 0 0 0 0 0 0 0 0 0 0 0 0 0 0 0 0 0 0 0
0 0 0 0 0 0 0 0 0 0 0 0 0 0 0 0 0 0 0 0 0 0 0 0 0 0 0 0 0 0 0 0 0 0 0 0 0 0 0 0 0 0 0 0
0 0 0 0 0 0 0 0 0 0 0 0 0 0 0 0 0 0 0 0 0 0 0 0 0 0 0 0 0 0 0 0 0 0 0 0 0 0 0 0 0 0 0 0
0 0 0 0 0 0 0 0 0 0 0 0 0 0 0 0 0 0 0 0 0 0 0 0 0 0 0 0 0 0 0 0 0 0 0 0 0 0 0 0 0 0 0 0
0 0 0 0 0 0 0 0 0 0 0 0 0 0 0 0 0 0 0 0 0 0 0 0 0 0 0 0 0 0 0 0 0 0 0 0 0 0 0 0 0 0 0 0
0 0 0 0 0 0 0 0 0 0 0 0 0 0 0 0 0 0 0 0 0 0 0 0 0 0 0 0 0 0 0 0 0 0 0 0 0 0 0 0 0 0 0 0
0 0 0 0 0 0 0 0 0 0 0 0 0 0 0 0 0 0 0 0 0 0 0 0 0 0 0 0 0 0 0 0 0 0 0 0 0 0 0 0 0 0 0 0
Wind_Speed
3 4 2 5 6 5 2 1 1 1 4 9 12 10 10 9 10 10 9 8 8 7 5 5 5 5 3 3 3 3 4 4 3 2 2 2 2 2 2 1 2 3 3 4
5 2 5 4 3 4 3 1 1 4 6 7 8 9 7 9 8 7 7 7 6 5 5 5 5 4 4 4 4 4 4 5 4 2 2 2 2 2 1 2 3 3 3 3
2 4 3 2 1 1 1 3 3 5 4 5 6 5 4 5 5 6 6 5 4 4 4 4 5 4 4 5 5 4 3 3 4 3 2 1 2 2 2 3 3 3 3 3
3 3 2 2 1 1 2 2 2 5 5 1 2 2 0 2 4 4 5 5 5 5 5 4 5 5 5 4 3 3 3 3 3 3 3 4 3 2 2 2 2 4 4 3
5 3 2 2 2 1 2 3 4 3 5 4 4 4 1 1 2 3 3 3 4 4 4 4 4 4 4 4 3 3 2 2 2 2 3 3 2 1 1 2 3 4 4 4
4 3 2 3 2 0 2 5 6 5 5 4 2 2 2 3 4 4 3 3 3 4 5 5 5 5 6 5 5 4 3 2 2 0 1 2 2 1 0 1 2 2 2 2
8 6 3 2 3 4 6 6 5 6 5 2 1 1 3 2 3 4 4 4 4 4 5 6 7 7 7 7 6 5 5 5 4 3 3 3 3 3 2 2 1 1 1 1
4 7 6 5 2 1 2 6 6 3 3 3 2 1 3 1 1 1 1 3 4 5 6 7 8 8 8 9 8 7 7 7 6 5 5 5 4 3 3 4 3 3 3 3
0 4 5 5 4 3 3 3 3 6 2 1 3 3 3 2 2 1 1 2 4 6 7 7 8 7 8 8 9 8 8 8 8 7 7 6 6 6 6 6 5 4 4 4
2 2 6 6 7 8 5 5 5 5 3 1 3 2 4 6 4 3 2 3 4 5 6 7 6 6 7 7 8 8 8 9 9 8 8 7 7 8 7 6 7 6 6 5
3 2 5 6 6 6 6 5 6 4 3 3 2 3 3 3 2 2 2 3 5 6 7 7 6 6 7 8 8 8 9 9 9 10 9 9 9 8 8 7 9 8 7 7
3 5 2 3 3 2 4 4 3 3 1 2 1 4 2 1 1 1 3 5 6 6 7 6 7 7 8 9 9 9 9 10 10 10 10 10 10 9 9 10 10 9 9 8
4 6 4 6 7 7 6 5 4 5 4 2 0 5 1 2 2 3 5 7 7 8 8 7 7 8 9 10 10 10 10 11 11 10 10 11 11 11 11 12 11 10 10 10
6 6 4 3 3 1 3 4 3 5 3 1 4 6 3 3 5 7 8 8 8 8 8 8 9 9 10 10 10 10 11 11 11 10 10 11 12 12 12 11 10 10 10 10
6 5 2 1 1 3 3 3 3 3 2 4 6 6 5 4 6 7 8 9 9 10 10 10 10 10 10 10 10 10 11 11 11 11 12 12 12 12 11 11 10 10 10 11
5 5 2 2 3 4 3 2 1 0 2 4 4 6 5 5 5 7 9 10 10 10 10 11 11 11 11 11 11 11 11 11 11 12 13 13 13 12 12 12 11 10 10 10
3 5 3 2 2 1 2 2 2 3 4 4 6 6 5 7 8 8 9 9 10 11 11 11 11 11 11 11 11 11 12 12 12 13 14 13 13 13 13 13 12 10 9 9
6 5 4 2 2 3 5 2 3 4 5 5 6 6 7 10 9 9 9 8 10 10 10 10 10 11 11 12 12 12 13 13 13 14 14 14 13 14 13 12 12 11 8 8
4 7 4 3 1 4 2 2 2 3 7 6 6 8 8 7 7 7 6 5 7 9 10 11 12 13 12 13 13 13 14 14 14 15 14 14 14 14 14 13 12 10 8 8
6 5 6 3 1 5 6 2 1 1 6 5 5 7 7 5 6 7 6 7 9 10 10 11 12 12 13 13 12 13 15 14 15 15 15 14 14 14 14 13 11 10 8 9
3 4 3 3 3 7 5 1 2 1 7 3 4 6 5 5 7 8 9 9 9 11 13 12 13 13 13 13 12 14 14 14 15 15 14 14 13 12 13 11 10 9 9 8
5 4 3 4 2 7 4 4 5 8 3 2 3 4 6 7 8 8 9 9 11 12 12 12 12 13 13 12 12 14 15 14 14 14 14 13 12 11 9 9 9 8 8 8
6 7 7 8 8 6 4 7 5 5 3 3 4 5 5 6 7 8 8 9 11 12 12 12 13 14 14 12 12 14 15 14 14 14 14 13 12 10 8 8 8 7 6 5
3 3 4 3 6 5 5 4 3 4 4 3 4 5 4 6 7 9 9 9 11 10 13 12 13 14 15 14 13 13 14 13 14 14 13 11 10 9 8 6 5 5 4 4
5 5 3 4 5 3 5 6 5 3 3 3 3 3 4 6 7 7 8 10 10 11 11 11 12 14 15 15 15 14 13 12 13 13 11 10 9 8 7 5 4 4 3 3
6 9 8 8 8 7 7 6 6 5 4 4 4 4 4 4 7 7 8 9 10 12 12 13 13 14 15 15 15 14 12 12 12 11 10 8 7 6 5 5 4 2 2 3
Wind_Direction
36 63 287 250 214 219 241 254 290 111 120 74 77 68 40 32 47 56 60 63 63 58 42 32 34 37 34 26 35 10 2 347 341 329 336 319 306 297 300 288 264 254 244 223
32 319 258 265 232 201 200 187 121 91 107 102 94 72 44 31 33 33 42 46 49 44 31 23 18 18 25 21 25 27 16 357 354 332 300 274 280 290 317 337 339 306 272 243
198 251 297 335 16 107 187 186 189 155 102 102 112 66 33 22 24 28 29 27 32 42 26 9 6 2 13 18 17 23 13 7 5 350 324 331 346 350 7 7 352 326 297 250
276 284 335 343 336 130 293 276 191 149 132 154 161 124 326 356 356 356 356 356 0 2 0 1 352 344 352 352 354 8 10 19 23 29 45 52 40 20 355 341 333 340 350 347
293 307 330 307 274 203 227 53 72 93 114 80 37 107 228 191 290 289 300 320 331 335 332 329 318 313 316 318 321 320 333 6 23 50 73 80 75 45 322 340 355 359 359 5
270 282 240 254 304 355 105 72 56 53 70 60 333 128 239 216 210 223 247 276 290 300 304 302 301 303 299 296 292 285 286 287 284 293 117 133 141 164 1 354 353 348 343 353
338 337 332 317 356 17 59 71 28 7 16 282 314 101 249 247 188 191 213 244 268 279 284 287 289 288 284 284 278 274 271 270 265 254 237 219 208 207 214 232 253 274 302 309
2 327 336 355 9 357 60 114 144 198 232 284 352 320 291 332 131 153 203 245 270 278 277 274 272 273 277 282 285 283 278 275 272 262 253 246 236 227 229 230 228 233 233 239
310 293 324 4 9 71 73 67 138 125 125 14 318 315 338 52 28 358 276 274 277 278 278 275 277 280 282 285 285 283 281 280 277 271 265 258 247 237 236 236 231 234 235 242
158 292 324 332 28 28 77 123 80 86 113 314 316 339 328 333 338 353 353 323 306 301 298 296 296 295 292 287 285 286 277 270 270 267 259 256 246 241 239 236 236 237 237 236
102 98 339 23 31 346 13 45 77 89 122 143 277 281 336 306 326 14 350 325 309 303 301 301 304 304 302 300 296 292 288 282 278 273 268 265 261 253 245 238 238 235 236 234
97 102 28 332 321 356 70 57 102 108 54 110 190 265 323 24 40 22 323 308 304 297 298 295 296 301 302 300 297 293 288 283 278 276 275 270 267 262 254 248 243 235 232 231
109 86 50 356 347 7 36 34 74 96 95 102 244 269 221 2 343 318 302 300 303 303 304 302 303 302 300 298 296 294 291 287 285 283 279 277 274 267 261 255 249 238 232 231
97 83 128 174 246 303 40 24 50 86 91 269 242 258 257 310 310 304 299 297 301 300 299 297 296 295 295 295 294 294 294 293 292 290 285 281 277 272 266 261 254 246 236 230
85 89 80 81 71 102 89 63 63 92 168 216 258 260 250 262 279 284 288 294 300 299 296 294 293 293 293 295 295 295 294 295 295 294 290 285 282 279 275 269 259 250 240 236
72 109 97 54 67 87 78 43 54 93 253 253 269 269 248 275 285 284 286 289 292 293 294 296 297 297 297 297 297 296 295 294 292 291 290 290 288 285 281 277 270 259 249 240
90 121 121 202 219 351 262 226 223 242 237 224 239 255 289 295 287 279 281 290 293 296 298 297 297 294 294 295 296 296 294 294 292 289 289 288 287 284 281 280 277 267 258 249
123 107 117 127 98 249 251 231 208 230 241 216 232 259 275 269 274 275 275 280 287 292 293 294 293 294 293 294 296 294 295 295 293 291 289 287 285 284 280 276 273 268 262 255
121 127 113 111 198 283 252 208 182 226 266 216 232 261 273 291 315 292 275 276 279 286 290 291 293 296 296 298 299 300 300 298 296 294 291 289 284 281 278 274 269 265 260 256
61 84 107 120 177 252 244 213 230 172 286 224 229 266 283 318 321 286 291 304 296 295 294 295 297 299 301 302 303 304 304 302 300 298 295 291 285 281 277 271 268 263 255 252
46 49 97 152 225 263 241 203 90 198 266 228 233 261 274 254 242 270 299 298 290 292 297 299 303 305 305 306 307 306 306 304 304 303 299 296 290 283 276 270 265 260 254 251
170 156 179 153 210 266 206 149 186 222 237 246 256 262 266 266 274 287 295 294 299 302 304 307 308 309 309 309 310 310 309 308 308 307 305 302 297 290 286 274 267 258 251 247
189 188 186 186 211 236 209 204 213 181 209 245 251 268 278 282 286 292 290 293 299 303 308 311 311 312 313 314 313 311 310 311 312 311 311 308 304 298 290 281 274 263 246 235
237 143 147 233 257 238 229 226 214 194 214 245 263 279 278 276 282 290 291 296 305 307 312 312 315 317 318 319 316 310 310 313 315 315 315 314 311 309 303 291 278 262 242 229
221 168 181 242 264 254 252 231 218 214 231 266 283 272 267 272 283 286 294 303 308 311 311 313 317 317 317 319 317 316 316 317 318 318 317 319 316 314 313 309 298 277 251 230
196 177 176 217 214 192 231 221 194 202 231 250 264 275 278 273 280 291 298 300 307 311 315 319 320 320 319 319 318 318 319 321 321 321 322 320 320 319 318 319 323 323 282 263